Weather in Uvarovka

Russia / Republic of Crimea     45°26′44″N   34°47′14″E
temp.,
°C
wind,
m/s
gust,
m/s
humid.,
%
clouds,
%
prec.,
mm/h
press.,
hPa
HPBL,
m
22 may, sun
sun2200:00+13ssw4104989 0.0 1009201
03:00+16wsw41129100 0.0 1008324
06:00+15wsw31039100 0.0 1007319
09:00+15w5974100 0.3 1006422
12:00+15w3690100 1.7 1006238
15:00+18nnw675799 1.7 1005639
18:00+19w575381 0.0 10041029
21:00+17wnw4858100 0.0 1005287
23 may, mon
mon2300:00+12w48815 0.0 1005136
03:00+10w47865 0.0 1006129
06:00+10wnw31085100 0.0 1007296
09:00+15nw4661100 0.0 10071082
12:00+17wnw565599 0.3 10071647
15:00+17nnw5559100 0.9 10071307
18:00+15nnw3565100 0.5 10071029
21:00+12nw2385100 0.8 100871
24 may, tue
tue2400:00+11nnw119199 0.4 100946
03:00+12ene229156 0.7 101051
06:00+11wnw229043 0.1 101142
09:00+16nne45586 0.9 10131211
12:00+19nne453938 0.0 10132395
15:00+18n134689 0.0 10141115
18:00+18nnw564277 0.0 10141605
21:00+12n23655 0.0 101627
25 may, wed
wed2500:00+10wnw33725 0.0 101823
03:00+12wsw336533 0.0 101956
06:00+11w22740 0.0 102019
09:00+17n23460 0.0 1021990
12:00+20ne33381 0.0 10212019
15:00+21ene43382 0.0 10211957
18:00+19ese43413 0.0 1021758
21:00+13s335452 0.0 102229
26 may, thu
thu2600:00+12wsw3574100 0.0 102179
03:00+11wsw338062 0.0 102227
06:00+11ssw227699 0.0 102127
09:00+18sse34495 0.0 1021578
12:00+21ssw343777 0.0 10201490
15:00+23wnw5536100 0.0 10181770
18:00+18w6944100 0.0 1019468
21:00+16wsw5105297 0.0 1019422